Location: Augirein
(42.9320°N, 0.9181°E)
Time: 20:00:00
(UTC+00:00)

MOZ.5/SAFIR/RUBIN 5/SL-8 - Pass Details

Date: 20 June 2021
Orbit: 677 x 706 km, 98.1° (Epoch: 01 August)

Event Time Altitude Azimuth Distance (km) Brightness Sun altitude
Exits shadow 01:38:05 43° 214° (SSW) 980 4.1 -19.7°
Maximum altitude 01:39:13 54° 260° (W) 851 4.0 -19.7°
Drops below altitude 10° 01:43:54 10° 338° (NNW) 2,179 6.9 -19.3°
Sets 01:46:14 0° 343° (NNW) 3,105 7.9 -19.1°
